Wind_Speed
16 16 16 16 15 14 14 16 15 14 14 14 13 13 12 12 11 11 10 10 9 9 8 8 8 8 8 9 10 11 13 14 16 17 19 22 24 25 26 26 28 30 31 33 35 36 36 36 35 33 31 31 31 30 29 27 26 26 26 27 28 27 27 27 27 27 29 31 32 32 30 30 33 34 31 30 30 30 30 29 28 28 28 27 28 28 26
16 16 16 15 14 14 15 15 14 13 13 13 13 12 11 11 11 10 10 9 8 8 8 8 8 8 8 9 10 12 13 15 17 18 19 21 23 24 26 27 28 29 31 32 34 36 37 38 37 36 35 33 32 31 31 30 28 26 24 24 27 28 28 27 27 28 30 32 33 33 31 30 33 35 32 30 30 31 31 30 30 30 29 29 29 28 27
16 16 15 14 14 14 15 14 14 13 13 13 12 11 11 11 10 10 9 8 8 7 7 8 8 8 9 10 11 12 13 15 15 16 15 16 17 19 22 25 27 29 30 31 32 34 36 38 39 39 38 37 35 33 33 33 32 29 25 23 24 27 28 28 28 29 32 33 34 34 32 31 33 35 34 32 31 32 32 32 31 31 30 30 30 29 28
16 16 15 14 15 15 15 14 14 13 13 12 11 11 11 11 10 9 9 8 8 8 7 8 8 9 10 11 12 12 13 14 14 14 13 12 12 13 15 18 21 24 28 30 31 32 33 36 39 40 41 41 39 37 36 35 33 32 30 27 25 25 25 27 29 30 33 35 34 33 33 31 31 34 35 34 33 34 34 34 34 33 32 31 31 30 29
16 15 15 15 15 15 15 14 13 13 12 12 11 11 11 10 9 9 8 8 8 7 7 8 8 9 10 11 12 13 13 14 14 15 15 13 13 13 14 15 16 18 22 26 29 30 31 33 36 39 40 42 43 42 40 38 36 35 34 32 30 26 23 25 28 29 32 38 38 34 32 32 31 32 34 34 35 35 35 36 36 36 34 33 31 30 30
16 15 15 15 16 15 15 14 13 12 12 12 12 11 11 10 10 9 9 8 7 6 6 8 9 10 10 11 12 12 13 13 14 16 18 17 16 16 16 16 16 16 18 20 24 27 29 31 33 36 37 39 42 43 42 40 39 38 37 35 32 29 24 22 23 22 23 32 38 34 32 32 32 32 33 33 35 35 34 34 35 36 36 34 32 31 31
16 16 16 16 16 15 14 13 12 12 12 12 12 11 11 11 10 9 9 8 6 5 6 8 9 10 10 11 11 12 12 12 12 14 18 19 19 18 17 16 16 17 18 19 21 24 27 30 32 34 35 36 38 39 40 40 38 37 36 35 33 32 27 23 21 17 15 22 31 32 32 33 33 33 33 33 34 34 34 33 32 34 35 35 34 33 32
16 16 16 16 16 15 13 13 13 13 13 13 12 11 11 11 10 10 9 6 5 6 6 7 8 8 9 10 11 11 12 13 13 13 15 17 17 16 16 15 15 16 18 19 21 23 25 27 30 33 34 34 35 35 36 37 38 36 34 33 32 31 29 27 24 20 17 18 22 27 31 33 34 33 33 33 34 34 34 33 32 32 33 35 35 35 34
17 17 17 16 15 14 13 13 13 14 13 13 12 12 11 11 11 10 8 5 5 6 6 6 7 7 8 10 10 11 12 12 14 14 15 16 16 15 15 15 15 15 15 16 19 22 24 27 29 31 31 32 32 33 33 33 34 35 34 32 29 27 26 27 28 26 23 21 20 22 27 31 33 34 34 34 34 34 33 33 32 32 32 33 35 35 34
17 17 17 16 15 14 14 14 14 14 13 13 12 12 12 12 11 9 6 5 6 6 6 6 7 7 8 9 9 10 11 12 13 14 14 13 15 16 16 16 15 14 13 14 15 19 23 26 28 28 29 30 30 31 31 29 30 31 31 31 29 25 22 23 26 27 26 24 23 22 23 26 30 33 35 35 35 34 34 33 33 32 32 33 33 34 34
18 18 17 16 15 15 14 14 14 14 13 13 12 12 12 11 9 7 6 5 6 6 5 6 7 7 8 9 9 9 10 11 13 14 12 10 12 13 14 15 14 13 14 14 15 16 20 23 25 26 27 29 30 29 28 28 27 26 27 29 30 29 24 21 22 23 23 23 24 24 24 25 27 30 33 35 35 35 34 34 33 33 32 33 33 34 34
18 17 17 16 16 15 15 15 14 13 13 12 12 12 11 10 8 6 5 5 5 6 5 6 7 7 8 9 9 9 9 10 11 12 11 10 11 12 11 11 13 14 15 15 16 16 17 19 22 24 25 26 27 28 27 26 25 24 25 27 28 29 28 24 21 21 21 21 22 22 23 26 28 28 29 31 35 36 35 34 34 34 34 33 33 33 34
18 18 17 17 16 16 15 15 14 13 12 12 12 11 10 9 7 6 5 5 5 6 6 5 6 7 8 9 9 10 9 9 10 11 11 10 10 11 10 10 12 15 16 15 14 14 14 15 17 20 21 21 22 24 25 25 24 23 25 26 27 27 28 26 24 22 21 21 21 19 19 23 27 28 27 26 29 34 35 34 32 33 34 34 34 33 33
18 18 18 18 17 16 15 14 13 12 12 12 12 11 9 8 7 7 5 4 5 6 6 5 6 7 8 9 9 10 10 9 9 10 11 11 10 9 9 9 11 12 13 12 11 9 9 10 12 15 17 17 18 19 21 22 23 24 24 24 25 26 27 27 27 26 24 24 23 18 16 18 21 25 27 25 24 28 32 33 32 31 31 33 34 33 33
19 19 19 18 17 15 14 12 12 11 11 11 11 10 8 7 7 6 4 4 5 5 5 5 5 6 7 8 9 10 10 9 9 9 10 11 10 8 7 6 8 8 8 7 6 6 6 6 8 11 14 14 15 16 18 18 21 23 23 22 24 25 25 26 26 27 28 28 26 22 19 17 15 17 23 25 24 24 27 29 31 31 31 32 32 32 33
20 20 19 18 16 15 13 12 12 12 11 11 10 9 8 7 6 5 4 4 4 4 4 5 5 6 7 8 8 9 10 10 9 9 10 10 10 8 6 4 4 4 4 4 4 5 5 3 4 7 9 11 13 14 16 18 20 20 20 20 21 21 21 21 22 24 26 27 24 22 20 18 13 11 16 21 24 24 25 27 29 30 32 33 34 33 32
20 20 19 18 16 14 13 12 12 12 11 10 10 9 8 6 5 4 3 3 3 3 3 4 5 5 6 7 8 9 9 9 9 9 10 11 10 8 5 3 2 1 1 3 4 4 3 1 2 4 6 9 11 11 13 17 19 18 17 17 17 18 18 18 18 19 21 21 20 19 19 18 16 12 11 15 20 23 25 26 27 29 32 34 35 36 34
20 20 18 17 15 14 13 13 12 12 11 11 10 9 7 6 5 4 3 2 1 2 3 3 4 5 5 7 7 8 9 9 9 9 9 9 9 8 6 5 4 2 2 3 3 3 2 1 2 3 4 7 11 11 11 12 14 16 17 16 16 16 17 17 16 15 15 15 14 15 17 18 19 17 13 14 18 21 23 23 23 27 30 32 34 35 34
20 19 18 16 15 14 13 13 12 12 11 10 9 8 7 6 5 4 3 1 1 2 2 3 4 5 6 6 7 7 8 8 8 8 7 7 8 8 7 6 5 4 3 3 3 2 2 2 2 2 2 5 9 10 11 10 10 11 14 15 14 14 15 15 15 14 14 13 12 12 12 13 15 17 16 15 16 18 19 20 21 22 26 29 31 32 32
20 19 17 16 15 14 13 13 12 12 11 10 9 8 7 5 4 3 2 1 1 2 2 3 3 4 4 5 6 6 7 7 7 7 7 7 7 7 6 6 6 5 4 3 3 3 3 2 2 3 3 5 6 8 10 11 9 7 9 12 13 13 13 13 13 13 13 15 15 14 11 11 13 15 16 16 17 17 18 19 20 20 22 25 27 28 29
20 19 17 16 15 14 13 13 12 11 11 10 10 8 7 5 4 3 2 1 1 2 3 3 3 4 4 5 6 6 6 6 6 6 6 6 6 5 5 5 5 5 5 4 3 3 2 2 1 3 3 5 6 7 8 9 9 7 7 9 10 12 13 12 12 12 12 14 15 15 13 13 13 14 15 16 18 19 19 20 21 21 21 23 24 26 27
20 19 17 16 15 14 14 13 12 11 11 10 9 8 6 5 4 3 3 2 2 2 2 3 3 4 4 5 5 5 5 5 5 5 5 5 5 5 5 4 4 4 4 5 4 4 3 3 2 2 3 4 6 7 8 9 8 8 8 9 9 10 11 12 12 12 12 12 14 14 14 14 15 16 17 17 19 20 21 22 23 24 24 24 24 25 25
20 19 18 17 16 15 14 13 12 11 11 10 9 8 6 5 4 3 3 3 2 2 2 2 3 3 4 4 4 4 4 4 5 5 5 5 5 5 4 3 3 3 4 4 4 4 3 3 3 3 3 4 6 7 9 10 10 9 10 10 10 10 10 11 11 11 12 12 13 15 15 16 17 18 18 18 19 21 22 23 25 26 27 27 27 27 26
20 19 18 17 16 15 14 13 12 11 10 10 9 8 6 5 4 4 4 4 3 2 2 2 2 2 3 3 3 3 3 4 5 5 5 5 5 5 4 4 4 4 4 4 4 3 4 3 3 3 3 4 5 6 7 9 10 11 11 11 12 13 12 13 13 13 13 13 13 15 16 17 17 18 18 18 19 20 21 23 25 26 28 29 29 30 30
20 19 18 17 16 15 14 13 12 11 10 9 8 7 6 5 4 3 3 4 4 3 2 2 3 3 2 3 4 4 4 4 4 5 5 5 5 6 6 6 5 5 5 4 4 3 3 3 3 3 3 3 4 5 6 7 8 10 11 12 13 13 14 15 15 15 16 15 15 16 17 18 18 19 19 19 20 20 20 21 23 24 25 27 29 31 32
21 19 18 17 17 16 15 14 13 12 11 9 8 7 6 5 4 3 3 3 3 2 2 2 3 3 3 3 4 4 4 4 4 4 5 6 6 6 6 7 6 6 5 4 4 3 3 3 3 2 2 2 3 4 5 6 7 8 9 10 11 12 12 13 14 14 15 16 16 16 17 18 18 19 19 20 21 21 22 23 23 24 24 25 27 29 31
21 20 18 17 17 16 15 15 14 12 11 10 9 8 7 6 5 4 4 4 3 2 2 2 2 3 3 4 4 4 4 4 4 4 5 5 6 6 6 6 7 7 6 5 4 3 2 2 1 1 1 1 1 2 3 4 5 6 7 7 8 9 9 10 11 12 12 13 15 16 16 17 18 19 19 20 20 21 22 23 24 25 26 27 28 29 30
21 20 19 18 17 16 16 15 14 13 12 10 8 8 7 6 6 5 5 4 4 2 2 3 3 3 3 4 4 4 4 4 4 4 4 5 6 6 6 7 7 7 6 6 5 4 3 1 1 1 1 1 1 2 3 3 4 5 5 6 6 6 6 7 8 8 10 11 12 13 14 16 16 18 19 20 21 21 22 23 24 25 26 28 29 31 32
21 20 19 18 17 16 16 15 14 13 12 10 8 7 6 6 6 6 5 5 4 3 3 3 2 3 3 4 5 5 4 4 4 4 5 6 6 7 7 8 8 8 7 6 5 5 4 4 3 3 2 3 3 3 4 5 5 5 5 4 4 4 4 5 6 7 8 9 9 10 11 12 13 15 16 18 19 20 22 22 24 25 26 28 29 31 32
21 20 19 18 17 17 16 15 14 13 11 10 8 6 5 5 5 6 5 5 4 3 3 4 3 3 3 4 5 4 4 3 3 4 5 6 6 7 8 8 9 9 8 8 7 6 6 5 5 4 4 4 5 5 6 7 7 7 6 6 5 5 5 5 5 6 7 7 8 9 9 10 11 13 14 15 16 18 19 21 22 24 25 27 29 31 32
22 20 20 19 18 17 16 15 14 12 11 10 8 6 5 4 5 5 5 5 4 3 2 3 3 3 3 4 4 4 3 2 3 4 5 5 6 6 7 8 9 9 9 9 8 7 6 6 5 5 5 6 6 7 8 9 9 8 8 7 7 7 6 6 6 6 5 6 7 8 9 10 12 13 14 15 17 18 19 20 21 22 24 25 27 29 30
22 20 20 19 18 17 16 15 14 12 11 9 8 7 5 4 4 5 5 5 4 3 2 2 3 3 3 4 4 3 3 2 3 3 4 4 4 5 6 6 7 8 8 8 8 8 7 7 6 6 6 7 8 9 10 10 10 9 8 8 7 7 7 7 7 7 7 8 9 10 11 12 13 14 16 17 18 20 21 22 23 24 25 25 26 27 29
22 20 19 19 18 16 15 15 14 12 11 9 8 7 6 4 4 4 5 4 4 3 2 1 1 3 3 3 3 3 2 2 2 2 2 2 3 4 5 5 5 6 7 7 7 8 8 8 8 8 8 9 9 9 9 10 9 9 8 7 7 7 7 8 8 9 10 11 11 13 14 15 16 17 18 20 21 22 23 25 26 27 28 29 29 30 31
21 20 19 18 17 16 15 15 14 12 10 9 7 6 5 4 4 4 4 4 3 3 2 2 0 2 2 3 3 3 2 2 2 2 1 2 2 3 3 3 3 5 6 6 7 8 8 9 9 9 10 10 11 10 10 9 9 8 7 6 6 7 8 9 10 11 12 13 14 16 18 19 20 22 23 24 25 25 26 27 28 29 30 31 32 33 34
21 20 18 17 16 15 15 14 13 12 10 9 7 6 5 4 4 4 4 3 3 3 3 3 2 0 1 2 2 2 2 1 1 1 1 1 1 1 1 2 3 4 5 6 7 7 8 9 9 10 11 12 12 12 10 9 8 7 7 7 8 9 10 12 13 14 16 17 19 20 22 24 25 26 27 27 28 29 29 30 30 31 31 32 33 34 35
21 19 18 16 15 15 14 13 12 11 10 9 7 6 5 4 3 3 3 3 3 3 3 3 2 1 1 2 2 2 1 1 1 1 0 0 0 1 1 2 3 3 4 6 7 7 8 9 10 11 12 12 12 12 11 11 9 9 8 9 10 11 13 14 16 18 20 21 23 24 25 27 28 29 29 30 31 31 32 32 32 33 33 33 33 34 35
20 19 17 16 15 14 13 12 12 11 10 9 8 6 5 4 3 3 3 3 3 3 4 4 3 2 1 1 2 2 2 2 1 1 1 1 1 2 2 3 3 4 5 6 7 7 8 9 10 11 12 12 12 12 12 12 11 10 11 12 13 15 16 18 20 22 23 24 26 27 28 29 30 30 31 31 32 32 32 32 32 32 31 31 32 32 33
20 19 17 15 14 14 13 12 11 11 10 10 9 7 6 5 3 3 3 3 4 4 4 4 3 3 3 2 2 3 3 3 2 2 2 2 2 3 3 3 4 5 5 6 7 8 8 9 11 12 12 12 13 13 12 12 12 12 14 15 17 19 20 22 23 25 26 28 29 31 31 32 32 32 33 33 32 32 31 30 29 27 27 27 27 28 29
20 19 17 16 15 14 13 12 11 11 10 10 9 8 7 5 4 4 3 3 4 4 4 4 4 4 5 4 3 3 4 3 3 3 3 3 3 3 4 4 5 5 6 7 7 8 9 10 11 12 12 13 13 13 13 13 14 15 17 18 20 21 22 23 24 26 28 30 31 33 34 34 34 34 34 33 32 30 28 26 25 24 23 23 23 23 24
20 19 17 16 15 14 13 12 11 10 10 10 9 9 7 6 5 4 4 4 4 4 4 4 4 5 5 5 4 4 5 5 4 4 4 4 4 5 5 5 6 6 7 8 8 9 10 11 12 13 13 13 13 13 13 14 15 17 18 20 21 22 23 24 25 27 29 31 32 33 34 35 34 34 33 31 29 28 26 24 23 22 22 22 21 22 22
21 19 18 17 15 14 13 12 11 10 10 9 9 9 8 7 6 5 4 4 5 5 4 4 5 5 6 6 5 5 5 6 6 5 5 5 5 6 6 6 7 8 8 9 9 9 10 12 13 13 13 14 14 14 14 14 16 18 19 20 22 22 23 24 26 28 30 32 33 34 34 34 32 31 30 28 26 25 24 22 20 20 20 20 20 20 20
21 20 18 17 16 14 13 12 11 10 10 9 9 9 9 8 7 6 6 5 5 5 5 5 5 6 6 6 6 6 6 7 7 7 7 7 7 7 7 7 8 8 9 9 10 10 11 12 14 14 14 14 14 13 14 15 16 18 19 21 22 23 24 25 27 30 32 33 34 34 33 31 28 27 25 24 23 22 21 19 18 18 18 18 18 18 18
21 20 19 17 16 15 14 12 11 10 10 10 10 10 9 8 7 7 7 6 5 5 5 5 5 6 6 7 7 7 7 7 7 8 8 8 8 8 8 8 9 9 9 9 10 11 12 13 14 15 15 14 13 13 15 16 17 19 20 21 22 23 24 26 29 31 33 34 34 33 30 27 24 22 21 20 20 19 19 18 18 18 18 17 17 16 16
22 20 19 17 16 15 14 13 11 11 11 10 10 10 9 8 8 8 7 6 6 6 6 6 6 6 6 7 8 8 7 8 8 9 9 9 8 9 9 9 9 10 10 11 11 12 13 14 15 15 15 14 14 14 16 17 18 20 21 21 22 24 26 27 29 32 34 34 34 31 27 24 21 20 19 19 18 18 17 17 17 17 18 18 17 17 17
22 20 19 18 16 15 14 13 12 11 11 10 10 9 9 8 9 8 7 7 7 7 7 7 7 7 7 7 8 8 8 9 9 9 9 9 9 9 10 10 10 10 11 12 13 14 15 15 15 15 15 14 14 15 16 17 19 20 21 22 23 25 27 29 31 33 34 34 32 29 25 21 19 19 19 18 17 16 16 16 16 17 18 18 18 18 18
22 20 19 18 16 15 13 12 11 11 11 10 10 10 9 9 9 9 8 8 8 8 9 9 9 8 8 8 9 9 9 9 10 10 10 10 10 10 10 10 11 11 12 13 14 15 16 16 16 15 15 14 14 15 16 18 19 20 21 22 24 27 29 31 33 34 34 33 31 27 23 19 17 18 18 18 17 16 15 15 15 15 16 17 17 17 17
22 20 19 18 16 14 14 12 11 11 11 11 11 10 10 10 10 9 9 9 9 10 10 10 10 9 9 9 9 10 10 10 10 10 10 11 11 11 11 11 12 12 13 14 15 16 16 16 16 15 14 14 15 16 16 18 19 20 21 23 25 27 30 31 33 34 34 32 29 25 22 18 17 17 18 18 17 16 15 15 15 14 14 15 16 16 16
21 20 19 17 16 15 14 13 12 12 11 11 11 11 10 10 10 10 10 10 10 11 11 11 10 10 10 10 10 10 10 11 11 11 11 11 12 12 12 12 13 14 15 15 16 16 16 16 15 14 14 14 15 16 16 17 18 20 21 24 26 28 30 31 32 33 33 31 27 23 20 18 17 17 18 18 18 17 16 15 15 14 12 12 12 12 12
20 19 18 17 16 15 14 13 13 12 12 12 11 11 11 11 11 11 11 11 11 11 11 11 11 11 11 10 11 11 11 11 11 12 12 12 12 12 13 14 14 15 16 16 16 16 16 15 15 14 15 16 16 16 16 17 18 20 22 24 26 28 30 31 31 32 31 29 25 21 19 17 17 17 17 18 19 19 17 15 14 13 11 9 9 9 9
20 18 18 17 17 15 14 14 13 13 12 12 12 11 11 11 11 11 11 11 12 12 12 11 11 11 11 11 11 11 11 11 11 12 12 13 13 13 14 15 16 16 16 16 16 15 15 14 15 15 16 16 16 16 16 17 19 20 22 24 26 28 29 31 31 31 30 27 23 20 19 18 17 17 17 18 19 19 18 16 14 12 10 10 9 10 10
19 18 18 17 17 16 15 15 14 13 13 12 12 12 11 11 11 11 11 12 12 12 12 11 11 11 11 11 11 11 11 11 11 11 12 13 13 14 14 15 16 17 16 16 15 15 14 15 15 16 16 16 16 17 17 18 20 21 23 25 26 28 29 31 31 31 29 26 23 20 19 18 17 17 17 17 18 18 18 16 14 12 11 10 10 11 11
19 18 18 17 17 16 16 15 14 14 13 13 12 12 11 11 11 11 12 12 12 12 12 12 12 11 11 10 10 11 11 10 11 11 12 13 14 15 15 15 15 16 15 15 14 14 14 15 16 17 17 18 18 18 18 19 20 22 24 25 26 28 29 31 31 31 29 26 23 20 19 18 17 17 17 17 17 17 16 15 14 13 11 10 10 10 9
Wind_Direction
215 219 224 229 231 230 230 231 230 227 228 230 230 232 232 229 227 224 224 225 225 228 232 239 247 255 265 271 275 280 284 284 279 271 264 259 255 253 250 246 242 239 239 241 242 242 240 241 244 246 247 245 246 249 248 245 242 240 238 236 235 235 229 219 216 221 221 220 225 229 229 226 223 221 221 222 226 230 233 237 241 243 246 248 250 251 250
216 220 223 227 229 227 225 226 225 223 224 226 228 228 228 223 218 217 218 218 219 226 237 248 260 272 282 286 291 296 298 295 288 279 270 264 259 256 252 249 246 243 240 238 240 241 241 240 241 243 244 244 244 247 252 253 250 247 244 240 236 235 232 225 219 221 223 223 225 229 230 228 224 223 223 225 227 229 231 235 239 241 243 245 248 250 251
217 219 221 225 226 224 221 220 220 220 221 225 225 222 220 217 213 212 213 214 220 232 245 258 270 279 285 289 294 300 302 299 290 280 272 268 265 261 257 252 249 247 244 241 240 240 239 240 241 241 242 244 244 245 249 253 253 252 251 248 244 241 237 232 227 224 224 225 226 229 232 232 228 225 226 227 229 230 231 234 238 240 243 245 247 250 252
215 216 218 221 223 219 215 215 217 217 220 223 218 213 213 212 208 208 211 216 224 235 249 261 270 276 280 287 295 302 306 303 290 275 267 265 266 268 266 261 255 250 247 244 242 241 239 238 239 240 240 242 244 245 246 248 250 253 254 253 254 251 243 238 235 229 227 226 227 229 232 234 234 230 228 229 231 232 234 236 238 240 242 245 246 249 251
212 213 215 218 218 212 209 211 215 217 219 217 211 208 209 207 206 211 215 219 228 241 258 268 276 283 288 293 299 305 310 308 290 271 261 259 264 270 273 270 265 258 252 247 244 242 241 239 239 239 240 242 243 245 246 248 249 252 254 254 255 255 247 241 241 240 236 227 223 227 231 234 236 235 231 231 232 235 237 239 241 241 242 245 246 247 249
209 210 212 213 212 208 206 209 212 214 214 210 206 205 205 204 205 213 219 225 237 255 273 280 286 292 295 299 304 308 313 311 294 273 261 259 263 269 272 271 267 263 260 255 249 244 242 241 240 239 239 241 243 244 246 247 248 250 252 254 255 254 251 244 242 250 246 226 219 224 231 234 237 238 235 233 233 237 240 240 242 243 243 245 246 247 249
207 207 208 208 207 205 205 207 208 209 208 206 205 204 202 203 206 213 220 229 245 263 275 283 289 295 299 304 307 311 314 314 304 282 265 260 261 264 269 269 266 264 263 261 257 251 245 242 241 240 237 238 241 243 245 247 248 249 251 253 254 254 253 251 247 249 246 227 221 225 231 235 239 239 238 236 234 237 241 242 243 244 244 244 244 246 248
204 205 205 204 204 203 204 204 203 203 204 204 204 203 201 203 208 216 223 232 249 261 269 280 290 299 307 310 311 315 317 315 311 297 276 263 259 260 263 264 263 262 263 263 260 256 249 244 242 242 240 239 240 242 245 246 246 248 250 251 253 255 254 254 253 251 247 241 235 232 231 234 238 240 240 239 236 236 241 245 246 246 245 245 244 245 248
202 203 202 202 203 202 200 199 199 200 201 201 202 202 200 203 209 215 222 235 251 260 269 282 295 310 317 317 316 317 317 316 315 309 292 270 259 257 261 264 264 262 263 266 263 257 251 246 243 242 242 242 241 241 243 247 247 247 247 248 251 255 255 253 253 254 255 255 254 246 238 236 238 240 241 242 240 237 239 244 248 250 250 248 247 247 248
200 200 200 200 201 199 196 196 196 198 199 199 201 201 200 204 208 211 215 232 251 266 283 295 305 322 327 321 318 315 317 320 322 320 308 282 264 261 267 273 273 265 260 263 264 258 252 247 244 243 242 241 240 240 240 243 246 246 245 245 245 248 254 252 250 253 257 257 258 257 251 243 240 240 241 243 243 241 240 242 246 251 252 252 252 251 251
199 198 199 198 197 194 193 194 195 196 197 199 201 201 201 203 205 206 209 228 255 277 294 301 309 324 329 321 317 317 322 328 330 329 323 299 277 271 272 274 270 260 254 255 257 257 251 246 244 243 242 239 237 237 236 237 243 245 243 243 242 241 245 249 247 250 255 256 257 256 254 250 247 244 242 242 243 244 242 242 243 248 251 252 253 253 254
197 196 197 195 192 191 192 193 194 196 198 200 201 200 199 198 199 201 207 228 257 278 291 298 308 320 325 321 318 322 329 333 334 332 327 310 290 279 274 272 268 262 258 256 256 257 252 244 240 241 241 240 237 236 236 236 240 242 241 242 243 241 242 245 245 248 252 256 258 258 257 254 253 253 249 244 242 243 243 242 241 243 247 250 251 252 254
194 194 193 190 189 191 192 192 193 195 198 200 199 196 192 189 193 199 205 227 255 275 289 298 307 316 322 323 322 326 333 338 340 335 329 323 308 287 276 280 281 272 263 258 259 261 255 242 237 239 240 241 238 235 234 233 234 237 242 246 247 245 243 242 243 246 249 251 253 256 258 256 252 252 253 249 243 240 241 242 242 241 243 246 249 252 254
191 191 189 187 188 191 191 192 194 194 194 194 191 188 184 186 196 203 207 231 256 274 289 300 310 318 322 325 327 331 336 342 345 341 335 337 332 306 285 291 295 279 262 257 262 261 249 236 233 235 238 238 236 231 228 228 232 238 245 251 251 249 246 244 243 245 248 251 251 250 256 261 255 247 246 248 246 241 239 241 242 242 242 244 247 250 253
188 187 186 186 187 189 190 192 193 191 188 186 184 182 183 190 203 209 217 244 264 280 295 306 317 321 322 326 330 335 340 343 347 346 344 345 343 325 301 304 307 285 257 251 255 244 233 234 234 234 234 235 233 228 221 220 228 234 240 245 248 248 247 246 246 245 248 255 259 258 260 267 263 243 237 240 243 243 241 241 243 244 243 243 245 248 250
186 185 185 186 187 187 188 189 189 187 184 181 181 181 184 193 204 212 228 253 270 286 301 313 323 324 323 328 333 338 343 345 347 350 352 354 351 341 325 320 318 292 243 220 226 223 222 246 251 237 229 226 226 225 219 217 222 227 231 236 241 243 245 246 246 246 248 255 263 266 265 265 259 238 229 232 235 238 241 242 244 245 244 243 244 245 247
185 184 184 185 185 185 185 185 182 181 179 180 183 182 182 190 200 209 224 243 266 295 315 324 327 325 326 332 336 340 345 348 348 352 358 1 360 357 358 11 5 337 178 174 201 215 213 239 250 233 224 217 216 216 214 217 224 230 233 237 240 241 242 242 243 244 248 254 262 264 262 258 253 243 223 215 217 223 229 234 238 242 242 241 242 243 244
184 184 184 184 183 181 181 179 177 177 178 181 183 181 180 187 195 202 210 224 272 321 334 333 330 334 340 341 339 340 346 352 353 355 2 6 7 11 26 48 49 46 124 155 184 207 204 193 204 218 213 203 204 207 207 214 226 231 232 236 237 235 234 234 236 238 242 248 253 253 251 249 249 247 233 211 203 207 213 217 223 231 235 237 239 240 241
183 183 183 182 180 178 177 176 175 176 179 181 180 178 181 185 187 191 193 193 346 352 355 352 350 352 350 344 338 340 347 354 357 360 6 15 20 22 34 56 69 79 109 139 161 190 215 212 199 202 180 177 195 207 207 209 220 223 222 224 227 228 228 228 230 233 231 227 231 238 238 235 236 239 237 226 213 207 207 207 211 220 226 230 233 235 235
182 182 181 178 177 176 175 174 174 176 178 178 176 177 180 180 176 177 176 149 46 24 20 16 11 5 355 344 341 344 348 354 2 6 10 20 31 34 41 61 87 106 117 132 163 195 225 238 238 230 194 172 189 206 211 219 231 232 221 217 220 226 227 224 226 230 226 221 226 235 236 231 230 230 230 229 226 222 217 212 211 214 218 221 224 227 228
181 179 178 176 176 176 175 174 175 177 177 176 174 174 174 170 163 164 162 140 82 48 33 27 24 18 7 356 349 347 349 357 5 10 12 20 36 48 55 63 86 115 130 146 174 197 205 206 241 248 223 202 202 208 215 226 237 243 236 225 223 227 229 227 229 233 229 224 227 231 231 231 236 236 231 228 229 230 229 225 222 222 222 222 222 222 223
179 177 175 176 176 176 176 176 176 175 175 174 172 172 169 160 153 153 154 143 102 59 36 31 30 22 13 1 351 347 353 360 5 10 15 21 34 48 60 67 79 101 121 140 164 184 189 184 196 219 223 218 216 216 222 226 228 232 235 232 229 231 232 233 236 237 236 231 228 229 231 232 235 238 236 231 228 229 230 230 229 230 231 231 230 227 225
177 175 175 176 176 176 176 176 174 174 174 173 172 171 165 157 152 153 156 148 123 87 51 40 42 30 15 4 355 356 3 6 8 9 13 20 29 39 50 65 79 89 95 110 129 145 155 167 190 206 215 221 222 224 231 234 234 236 239 238 239 240 238 238 239 240 239 235 229 229 231 230 229 231 233 231 228 227 227 227 228 229 230 232 233 232 230
176 175 175 176 176 176 175 174 173 173 173 171 170 170 166 162 161 156 152 147 130 110 79 62 60 43 21 14 15 17 20 21 18 9 5 11 21 29 35 43 58 69 75 81 94 110 117 124 142 163 183 207 216 223 231 236 237 240 244 245 245 245 244 242 242 242 243 240 235 233 235 235 234 234 235 235 233 230 227 226 225 226 227 229 231 232 231
176 176 176 176 176 175 175 174 172 172 170 169 171 172 168 167 162 144 136 139 132 115 89 73 73 64 42 28 28 32 36 36 28 15 6 10 18 23 27 31 39 49 58 67 76 88 101 108 119 135 152 175 193 205 218 225 228 234 239 241 243 245 245 244 243 244 246 246 244 242 243 244 245 244 244 244 244 241 238 235 232 229 227 228 230 232 232
177 177 176 177 177 176 175 173 171 170 168 169 172 172 167 165 157 131 123 138 138 113 79 66 67 63 53 41 37 40 43 45 40 29 22 23 24 24 24 27 33 39 46 53 58 65 81 94 107 128 149 172 186 199 213 220 223 230 234 237 240 243 245 245 245 245 246 248 248 248 248 249 250 251 250 249 249 248 247 246 244 241 238 235 234 235 235
177 177 177 178 178 177 175 173 172 170 169 169 170 165 163 164 159 139 131 141 145 123 98 87 77 70 59 48 48 51 55 57 57 50 42 39 38 35 30 28 32 37 40 42 41 42 58 81 104 127 147 189 210 221 231 234 237 243 245 246 250 252 253 252 252 250 249 249 250 251 252 252 253 253 254 254 252 251 250 249 249 249 247 245 243 242 240
178 178 178 179 180 179 176 174 174 172 170 169 166 161 160 162 156 142 137 145 147 128 107 97 84 72 62 54 54 60 66 72 73 68 64 61 58 53 47 42 40 39 40 39 34 27 23 19 345 287 266 264 259 254 255 256 260 265 268 272 274 273 269 266 263 259 255 254 253 252 253 254 255 255 256 257 256 255 254 253 251 250 250 249 247 246 245
178 178 179 180 181 181 178 175 175 174 171 168 165 159 156 157 151 142 140 147 151 133 111 105 89 68 57 53 54 59 64 74 86 88 80 74 69 64 58 53 49 46 43 39 32 21 12 360 346 326 298 284 282 274 267 270 279 286 294 302 302 292 280 271 266 263 261 259 260 259 259 259 259 259 258 259 260 260 259 258 255 253 251 250 249 248 248
178 178 180 180 182 183 180 176 176 176 171 166 164 160 155 153 148 142 141 150 156 141 115 104 90 66 47 45 51 60 64 72 90 97 90 82 76 70 63 57 53 49 45 42 36 26 16 5 352 339 320 305 296 289 286 294 305 313 322 328 322 308 295 284 276 271 269 269 270 271 271 271 270 269 268 267 265 264 263 262 261 259 256 254 253 252 251
178 179 180 181 182 183 181 177 177 177 170 164 163 160 156 156 150 142 143 154 161 149 116 94 82 66 47 38 43 58 70 82 99 101 97 91 84 76 68 59 53 47 42 38 34 28 21 12 357 340 323 313 307 304 307 313 319 324 328 329 324 316 311 308 306 302 295 291 290 287 286 286 284 282 281 280 277 275 272 270 268 266 265 263 261 259 257
179 179 181 182 183 183 181 179 179 178 171 164 162 160 158 160 158 150 149 158 166 164 142 103 81 68 55 42 39 47 61 79 98 103 102 98 90 80 71 61 52 44 38 32 28 23 17 10 359 344 330 321 317 316 319 322 325 327 329 328 326 323 321 320 319 316 312 309 304 299 296 294 292 290 288 287 286 285 283 281 279 277 275 272 270 268 265
179 181 182 182 182 183 183 182 181 179 174 168 165 163 159 159 165 164 160 163 172 174 171 152 83 66 59 46 37 37 42 57 82 104 117 113 96 81 70 60 50 41 30 23 19 15 9 3 357 348 337 328 324 323 326 327 327 330 333 331 325 322 320 318 317 315 313 312 309 307 305 303 301 298 296 294 292 289 287 285 283 282 280 278 276 274 271
180 182 182 182 182 183 185 184 183 182 180 176 171 169 162 158 168 177 175 173 178 180 189 206 182 61 57 44 37 36 33 45 73 104 122 109 97 85 68 50 39 31 20 12 9 6 1 357 352 345 338 334 332 333 334 333 331 330 328 320 314 313 314 313 312 311 311 310 309 308 307 305 302 300 298 296 294 291 288 286 284 281 279 277 275 273 272
182 183 183 183 183 185 188 187 185 185 187 186 182 178 170 164 173 185 188 187 190 192 201 220 240 27 47 37 36 38 32 40 69 98 112 97 91 83 49 21 14 11 3 358 357 355 352 350 347 343 341 340 338 337 338 336 329 322 314 308 310 312 310 309 308 306 306 306 306 306 305 305 303 301 299 297 295 293 290 288 286 283 280 276 273 270 268
183 184 184 184 185 188 190 190 189 190 192 194 192 189 186 181 182 190 195 200 206 211 215 227 242 258 359 16 15 11 5 23 63 92 116 54 9 359 351 349 353 349 341 341 344 343 341 341 341 340 341 340 339 337 336 331 323 314 308 308 309 309 307 306 307 307 307 307 308 309 309 308 306 304 302 300 298 296 293 291 289 286 283 279 275 272 268
185 186 186 186 188 191 192 193 194 195 196 198 199 200 202 202 200 200 205 214 224 230 232 239 251 264 286 326 342 339 334 336 348 354 325 311 320 326 325 327 334 331 323 325 331 333 333 333 333 335 337 338 337 336 332 326 317 309 304 303 303 304 306 308 310 311 312 313 313 313 312 310 308 306 305 304 302 300 297 295 292 288 285 281 278 274 271
187 188 188 189 192 193 194 196 199 199 199 200 203 206 211 214 215 217 218 224 235 244 245 249 259 267 273 285 307 321 321 317 312 312 308 304 310 316 316 318 320 319 315 317 320 323 322 323 326 330 333 335 335 334 329 320 311 302 298 298 300 303 307 311 313 314 315 316 316 315 314 312 311 310 309 307 306 303 300 297 293 290 288 286 283 280 276
189 190 191 192 195 196 197 199 203 205 205 205 206 209 214 219 224 228 229 231 240 249 252 254 256 261 267 278 291 301 306 304 296 292 294 296 300 306 310 310 311 310 312 313 314 314 315 317 321 326 329 330 331 330 325 316 308 302 300 300 302 306 310 313 314 314 314 315 314 314 313 312 312 311 310 309 307 304 300 296 294 294 294 293 292 289 284
191 193 194 195 197 199 200 202 205 208 210 211 212 214 216 221 227 235 238 239 245 252 255 257 257 260 266 274 279 285 293 296 288 282 286 291 297 301 305 307 308 310 311 310 310 309 310 312 316 321 324 325 327 326 322 315 309 305 303 304 307 311 314 314 314 314 314 314 314 313 312 312 312 312 310 308 305 301 298 296 296 296 296 296 294 292 288
194 196 197 198 199 201 203 205 208 210 212 214 217 218 220 224 229 236 241 245 250 256 261 263 263 262 265 270 273 275 282 287 284 280 280 284 290 299 304 306 307 307 307 307 307 306 305 307 311 315 319 320 323 322 318 313 309 306 306 308 311 314 314 314 314 315 315 314 314 314 314 315 313 311 309 306 303 299 297 296 296 296 296 296 296 294 290
197 198 199 200 201 203 206 209 212 214 215 217 220 222 224 227 230 235 241 246 254 264 270 270 270 269 270 273 275 275 276 279 279 277 277 281 288 297 302 304 305 305 306 306 305 302 301 303 307 311 314 318 320 319 315 310 308 307 308 311 312 313 314 315 316 316 316 316 316 317 318 316 313 309 307 305 302 299 296 294 293 294 295 297 298 297 294
199 200 201 201 202 205 207 211 215 217 219 221 223 225 228 230 233 238 244 250 260 270 275 275 275 274 274 275 277 277 276 275 275 276 277 280 285 292 298 301 304 307 309 307 302 298 297 300 303 307 313 317 318 315 311 309 308 308 309 311 312 313 314 316 317 318 317 318 319 320 319 315 309 305 306 307 305 301 298 294 291 290 290 292 294 295 295
201 201 202 202 204 206 209 212 215 219 222 224 226 229 232 235 239 242 247 253 261 268 273 275 277 277 276 275 276 276 277 276 275 275 274 276 280 287 294 300 305 309 309 306 300 296 296 298 302 307 314 316 315 312 310 309 308 309 311 312 314 314 316 317 319 319 319 320 321 322 319 312 305 302 305 307 306 304 301 297 291 287 284 284 285 287 289
201 202 203 204 205 208 211 214 218 222 226 228 230 233 236 240 243 247 251 256 261 266 271 276 280 282 282 280 278 278 277 276 275 275 275 276 280 286 291 297 303 307 306 303 299 297 297 300 304 309 313 314 313 310 308 307 308 310 313 314 315 316 318 320 321 321 321 323 324 323 318 310 302 301 304 306 307 308 307 304 297 291 286 283 281 281 282
201 202 203 204 206 208 212 217 222 227 230 231 233 235 238 241 245 250 254 258 262 266 271 276 281 285 286 285 284 282 280 278 277 277 277 276 278 282 288 294 299 302 303 302 300 300 301 303 307 310 313 312 309 307 305 306 309 311 314 315 316 318 321 323 324 324 325 326 327 325 319 311 304 302 303 305 306 309 312 312 306 297 291 286 283 281 279
202 202 202 204 206 209 213 219 225 229 231 232 233 235 238 242 247 251 255 259 264 268 272 277 282 286 289 290 289 286 283 281 280 277 275 275 277 281 287 293 297 300 302 303 303 303 303 304 307 311 311 307 304 303 305 307 309 311 313 315 317 321 323 325 326 327 328 329 329 327 322 316 309 306 304 304 303 305 311 314 310 300 291 286 283 282 282
201 201 202 203 205 208 213 219 224 228 230 232 234 237 240 244 248 253 257 261 265 270 274 279 284 289 292 292 290 288 285 283 281 278 276 276 278 281 286 291 295 300 303 305 305 304 304 306 309 310 307 303 302 304 306 307 307 309 312 316 320 323 325 327 328 329 330 331 331 329 324 320 315 312 309 307 305 303 305 309 309 304 293 285 282 283 285
201 200 201 203 206 210 214 219 225 229 232 234 236 239 242 247 251 255 259 263 267 272 277 282 286 289 290 289 286 285 284 283 282 281 279 278 279 282 287 291 296 301 305 307 308 307 307 308 308 306 303 303 304 306 305 305 306 310 314 318 322 325 327 328 330 331 332 332 331 328 324 320 316 313 311 310 308 306 305 305 305 302 292 280 277 283 290
200 200 201 204 207 211 215 220 226 231 234 236 239 242 245 249 254 259 264 269 272 276 280 283 284 284 284 283 281 280 280 280 281 281 281 282 284 287 291 295 300 305 308 309 309 308 308 307 305 303 303 304 305 304 304 306 309 313 317 320 324 326 328 330 332 333 333 332 330 327 323 320 317 314 312 311 309 308 305 301 298 294 284 270 268 278 289
199 200 202 204 208 212 216 222 228 233 238 241 243 246 248 252 258 263 267 270 273 276 279 280 279 278 279 280 280 279 280 281 281 283 285 287 290 293 296 299 303 307 309 309 309 309 308 306 305 304 305 305 305 305 307 310 312 315 318 321 324 326 329 332 334 334 334 332 329 325 322 319 317 315 313 311 309 309 306 299 291 286 279 269 268 275 284
200 201 203 206 210 215 220 225 230 236 240 244 247 249 253 257 262 265 267 270 272 276 277 278 279 279 280 281 281 281 282 282 284 286 289 291 293 297 301 304 307 309 310 310 310 310 309 308 307 307 307 308 308 309 310 311 312 314 317 321 324 327 330 333 334 335 334 331 327 323 321 319 315 311 310 308 308 308 306 297 287 281 277 270 265 265 269
Height
5606 5607 5609 5610 5611 5613 5614 5615 5616 5617 5618 5619 5620 5621 5622 5623 5623 5624 5624 5625 5626 5627 5628 5629 5629 5630 5630 5630 5630 5630 5630 5630 5630 5630 5630 5630 5630 5631 5632 5633 5634 5635 5636 5637 5638 5640 5642 5643 5644 5646 5647 5649 5650 5650 5651 5652 5653 5654 5655 5657 5658 5660 5662 5665 5667 5668 5669 5670 5670 5672 5674 5675 5677 5677 5679 5680 5681 5682 5684 5685 5686 5686 5687 5688 5689 5690 5693
5604 5605 5607 5608 5610 5611 5612 5613 5614 5615 5616 5617 5618 5619 5620 5621 5621 5622 5623 5624 5625 5626 5627 5627 5628 5628 5628 5628 5628 5628 5628 5627 5627 5627 5627 5627 5627 5627 5628 5629 5630 5631 5632 5633 5634 5636 5638 5640 5641 5643 5644 5645 5647 5648 5648 5650 5651 5652 5653 5654 5656 5657 5659 5662 5664 5665 5666 5667 5668 5669 5671 5673 5674 5676 5677 5678 5679 5680 5681 5682 5683 5684 5685 5686 5687 5688 5691
5602 5603 5605 5606 5608 5610 5611 5612 5613 5614 5614 5615 5617 5618 5619 5619 5620 5621 5622 5623 5624 5625 5626 5626 5626 5626 5626 5626 5626 5626 5625 5625 5624 5624 5624 5624 5624 5624 5624 5625 5626 5627 5628 5629 5630 5632 5634 5635 5637 5639 5641 5642 5643 5644 5645 5647 5648 5649 5650 5652 5654 5655 5657 5659 5661 5662 5663 5664 5665 5666 5669 5671 5672 5673 5675 5676 5677 5678 5679 5680 5681 5682 5683 5684 5685 5687 5689
5600 5601 5603 5605 5607 5608 5609 5610 5611 5612 5613 5614 5616 5617 5617 5618 5619 5620 5621 5623 5623 5624 5624 5625 5625 5625 5625 5624 5624 5624 5623 5622 5622 5621 5621 5621 5622 5622 5622 5622 5622 5623 5624 5625 5626 5628 5629 5631 5632 5634 5636 5638 5639 5641 5642 5643 5645 5646 5647 5650 5651 5653 5654 5656 5658 5659 5660 5661 5662 5664 5666 5668 5670 5671 5673 5674 5675 5676 5677 5678 5679 5680 5681 5682 5684 5686 5687
5598 5600 5602 5604 5605 5607 5608 5609 5610 5611 5612 5613 5615 5616 5616 5617 5619 5620 5621 5622 5622 5623 5623 5623 5623 5623 5623 5623 5622 5621 5621 5620 5619 5619 5619 5619 5619 5620 5620 5620 5620 5620 5621 5621 5623 5624 5625 5626 5628 5629 5632 5633 5635 5637 5639 5641 5642 5643 5644 5646 5649 5650 5652 5652 5654 5655 5656 5657 5659 5661 5663 5665 5667 5669 5670 5672 5673 5674 5675 5676 5677 5678 5679 5680 5682 5684 5685
5597 5598 5600 5602 5604 5605 5607 5608 5609 5610 5611 5612 5613 5615 5616 5617 5618 5619 5620 5620 5621 5622 5622 5622 5621 5621 5621 5621 5620 5620 5619 5618 5617 5616 5616 5616 5617 5617 5617 5617 5617 5618 5618 5618 5619 5620 5621 5622 5623 5625 5627 5629 5631 5633 5635 5637 5639 5641 5642 5643 5645 5647 5649 5650 5651 5652 5652 5653 5656 5658 5660 5662 5664 5666 5667 5669 5671 5671 5672 5673 5674 5675 5677 5678 5680 5682 5683
5596 5597 5599 5601 5603 5604 5606 5607 5608 5609 5610 5611 5613 5614 5615 5616 5617 5618 5618 5619 5620 5620 5620 5620 5620 5620 5620 5619 5619 5618 5617 5616 5615 5614 5614 5614 5614 5614 5615 5615 5615 5615 5615 5616 5616 5617 5618 5618 5619 5621 5623 5625 5627 5630 5632 5633 5636 5638 5639 5641 5642 5644 5646 5647 5648 5649 5650 5652 5654 5656 5657 5659 5660 5662 5664 5666 5668 5669 5670 5671 5672 5673 5675 5676 5678 5679 5680
5594 5596 5598 5600 5602 5603 5605 5606 5607 5608 5609 5611 5612 5613 5614 5615 5616 5617 5618 5618 5619 5619 5619 5619 5619 5619 5619 5618 5617 5616 5615 5614 5613 5612 5611 5611 5611 5612 5612 5612 5613 5613 5613 5613 5613 5614 5615 5615 5616 5617 5620 5622 5624 5626 5628 5630 5633 5635 5637 5638 5640 5641 5643 5645 5646 5647 5648 5649 5651 5653 5654 5655 5657 5659 5661 5663 5665 5666 5668 5668 5669 5671 5672 5674 5675 5677 5678
5593 5595 5597 5599 5601 5602 5604 5605 5606 5607 5608 5610 5611 5612 5613 5614 5615 5616 5617 5617 5618 5618 5618 5619 5618 5618 5617 5616 5615 5614 5613 5612 5611 5610 5609 5609 5609 5610 5610 5610 5610 5610 5610 5610 5610 5611 5611 5612 5612 5614 5617 5619 5621 5623 5625 5627 5630 5632 5634 5636 5637 5639 5640 5642 5643 5644 5645 5646 5648 5650 5651 5653 5654 5656 5657 5659 5661 5663 5665 5666 5667 5668 5670 5671 5672 5674 5675
5592 5594 5596 5598 5600 5601 5603 5604 5605 5606 5607 5609 5610 5611 5612 5613 5614 5615 5616 5616 5616 5617 5617 5617 5617 5616 5616 5615 5614 5613 5612 5611 5610 5609 5607 5607 5607 5608 5608 5608 5608 5608 5608 5608 5608 5608 5608 5608 5610 5612 5614 5615 5617 5619 5622 5624 5626 5628 5631 5633 5635 5636 5638 5639 5641 5642 5643 5644 5645 5647 5648 5650 5651 5652 5654 5655 5658 5660 5662 5664 5665 5666 5667 5668 5669 5671 5673
5592 5593 5595 5597 5599 5600 5602 5603 5604 5605 5606 5608 5609 5610 5611 5613 5613 5614 5615 5616 5616 5616 5616 5616 5615 5615 5614 5614 5613 5612 5611 5610 5609 5607 5606 5605 5605 5606 5606 5605 5605 5605 5604 5604 5604 5604 5605 5605 5607 5609 5610 5612 5613 5616 5619 5621 5623 5626 5628 5629 5631 5634 5635 5637 5638 5639 5641 5641 5642 5643 5645 5646 5647 5649 5651 5652 5654 5656 5659 5661 5662 5663 5664 5665 5666 5668 5670
5591 5593 5594 5596 5598 5600 5601 5602 5603 5604 5605 5607 5608 5609 5611 5612 5613 5614 5614 5615 5615 5615 5615 5615 5614 5614 5613 5613 5612 5611 5610 5609 5608 5606 5605 5604 5604 5604 5603 5603 5602 5602 5601 5601 5601 5602 5602 5603 5604 5605 5607 5609 5611 5613 5616 5619 5621 5623 5625 5626 5628 5630 5633 5635 5636 5637 5638 5639 5640 5641 5642 5643 5644 5645 5647 5649 5651 5653 5655 5657 5659 5660 5661 5661 5663 5665 5667
5590 5592 5594 5595 5597 5599 5600 5601 5602 5604 5605 5606 5607 5608 5610 5611 5612 5613 5614 5614 5614 5614 5614 5614 5613 5613 5612 5611 5610 5610 5609 5608 5607 5606 5605 5604 5602 5602 5601 5601 5600 5599 5599 5599 5599 5599 5600 5601 5602 5603 5605 5607 5609 5611 5614 5616 5619 5621 5622 5623 5625 5627 5630 5632 5634 5635 5636 5637 5638 5639 5640 5640 5640 5642 5643 5645 5647 5649 5651 5653 5655 5657 5658 5658 5660 5662 5664
5589 5591 5593 5595 5597 5598 5599 5601 5602 5603 5604 5605 5606 5608 5609 5610 5611 5612 5613 5613 5613 5613 5613 5613 5612 5612 5611 5610 5609 5609 5608 5607 5607 5605 5604 5603 5601 5600 5600 5599 5598 5598 5597 5597 5598 5598 5599 5600 5601 5602 5603 5605 5607 5609 5611 5615 5617 5619 5620 5622 5623 5625 5627 5629 5631 5633 5634 5635 5636 5637 5638 5638 5638 5639 5640 5642 5643 5645 5648 5650 5651 5653 5655 5656 5657 5658 5660
5588 5590 5592 5594 5596 5597 5599 5600 5601 5602 5603 5605 5606 5607 5609 5610 5611 5612 5612 5612 5612 5612 5612 5611 5611 5611 5610 5609 5609 5608 5607 5607 5606 5605 5603 5602 5601 5600 5599 5598 5597 5597 5596 5597 5597 5598 5599 5600 5600 5601 5602 5604 5606 5608 5610 5613 5616 5617 5619 5620 5621 5622 5624 5626 5628 5630 5632 5633 5634 5635 5636 5637 5636 5637 5637 5639 5640 5642 5644 5646 5648 5649 5651 5652 5653 5655 5656
5587 5590 5592 5594 5595 5597 5598 5599 5600 5602 5603 5604 5606 5607 5608 5609 5610 5611 5611 5611 5611 5611 5611 5610 5610 5610 5609 5609 5608 5607 5606 5606 5605 5604 5603 5602 5601 5599 5598 5597 5597 5596 5596 5597 5597 5598 5599 5600 5600 5601 5602 5603 5605 5607 5609 5612 5614 5615 5616 5618 5619 5620 5622 5623 5625 5627 5629 5630 5631 5633 5634 5635 5635 5635 5635 5636 5638 5640 5641 5643 5644 5645 5647 5648 5650 5651 5652
5587 5589 5591 5593 5595 5596 5597 5599 5600 5601 5603 5604 5606 5607 5608 5609 5609 5610 5610 5610 5610 5610 5610 5609 5609 5609 5609 5608 5607 5607 5606 5605 5605 5604 5603 5601 5600 5599 5598 5597 5597 5596 5596 5597 5598 5599 5600 5601 5600 5601 5602 5603 5605 5607 5608 5610 5612 5613 5614 5616 5618 5619 5620 5622 5623 5625 5626 5628 5629 5630 5631 5633 5634 5634 5634 5634 5635 5637 5639 5640 5641 5642 5643 5644 5645 5647 5649
5587 5589 5591 5593 5594 5596 5597 5598 5600 5601 5602 5604 5605 5606 5607 5608 5608 5609 5609 5609 5609 5609 5609 5609 5609 5608 5608 5607 5607 5606 5606 5605 5604 5603 5603 5602 5601 5599 5598 5598 5597 5597 5597 5598 5598 5599 5600 5601 5601 5601 5601 5602 5604 5606 5608 5609 5611 5612 5613 5615 5616 5617 5619 5620 5621 5623 5624 5625 5626 5627 5628 5630 5631 5632 5633 5633 5633 5634 5636 5637 5638 5638 5639 5640 5641 5643 5645
5586 5588 5590 5592 5594 5595 5597 5598 5599 5601 5602 5604 5605 5606 5607 5607 5608 5608 5609 5609 5609 5609 5608 5608 5608 5607 5607 5607 5606 5606 5605 5605 5604 5604 5603 5602 5601 5600 5599 5598 5598 5598 5598 5599 5599 5600 5601 5601 5601 5601 5602 5603 5604 5605 5607 5608 5610 5611 5612 5613 5614 5615 5617 5618 5619 5620 5622 5623 5624 5625 5626 5627 5628 5629 5630 5632 5632 5633 5633 5634 5635 5636 5636 5637 5638 5640 5642
5586 5588 5590 5592 5593 5595 5596 5598 5599 5601 5602 5603 5604 5605 5606 5607 5607 5608 5608 5608 5608 5608 5608 5608 5607 5607 5607 5606 5606 5605 5605 5604 5604 5603 5603 5602 5601 5600 5600 5599 5599 5599 5599 5600 5600 5601 5601 5601 5601 5602 5602 5603 5604 5605 5606 5608 5609 5610 5611 5612 5613 5614 5615 5616 5617 5619 5620 5621 5622 5623 5624 5625 5626 5626 5628 5630 5631 5631 5631 5632 5633 5634 5634 5635 5636 5637 5639
5586 5588 5590 5591 5593 5594 5596 5597 5599 5600 5602 5603 5604 5605 5606 5606 5607 5607 5607 5608 5608 5608 5608 5607 5607 5607 5606 5606 5606 5605 5605 5604 5604 5603 5603 5602 5602 5601 5600 5600 5600 5600 5600 5600 5601 5601 5601 5602 5602 5602 5603 5603 5604 5605 5606 5607 5608 5609 5610 5611 5612 5613 5614 5615 5616 5617 5618 5619 5620 5622 5623 5623 5624 5624 5626 5627 5628 5629 5630 5630 5631 5631 5632 5633 5634 5635 5637
5585 5587 5589 5591 5593 5594 5596 5597 5599 5600 5601 5602 5603 5604 5605 5606 5606 5607 5607 5607 5607 5607 5607 5607 5607 5606 5606 5606 5605 5605 5605 5604 5604 5603 5603 5602 5602 5602 5601 5601 5601 5601 5601 5601 5601 5602 5602 5602 5602 5603 5603 5604 5604 5605 5606 5606 5607 5608 5609 5610 5611 5612 5613 5614 5615 5616 5617 5618 5619 5620 5621 5622 5622 5622 5623 5625 5626 5627 5628 5629 5629 5630 5630 5631 5632 5633 5635
5585 5587 5589 5591 5593 5594 5596 5597 5599 5600 5601 5602 5603 5604 5605 5605 5606 5606 5607 5607 5607 5607 5607 5607 5607 5606 5606 5606 5606 5605 5605 5604 5604 5603 5603 5602 5602 5602 5602 5602 5602 5602 5602 5602 5602 5602 5603 5603 5603 5603 5603 5604 5604 5605 5605 5606 5607 5608 5609 5609 5610 5611 5612 5613 5614 5614 5615 5617 5618 5619 5619 5620 5620 5620 5621 5622 5623 5624 5625 5626 5627 5628 5629 5629 5630 5631 5632
5585 5587 5589 5591 5592 5594 5596 5597 5598 5599 5601 5602 5603 5603 5604 5605 5606 5606 5607 5607 5607 5607 5607 5607 5607 5606 5606 5606 5606 5605 5605 5604 5604 5603 5603 5603 5602 5602 5602 5602 5603 5603 5603 5603 5603 5603 5603 5603 5604 5604 5604 5604 5604 5605 5605 5606 5606 5607 5608 5608 5609 5610 5611 5612 5612 5613 5614 5615 5616 5617 5617 5618 5618 5619 5620 5620 5621 5622 5623 5623 5624 5625 5626 5627 5627 5628 5629
5585 5587 5589 5591 5592 5594 5596 5597 5598 5599 5600 5601 5602 5603 5604 5605 5605 5606 5606 5607 5607 5607 5607 5607 5607 5607 5606 5606 5606 5605 5605 5604 5604 5604 5603 5603 5603 5603 5603 5603 5603 5603 5603 5604 5604 5604 5604 5604 5604 5604 5604 5604 5605 5605 5605 5605 5606 5606 5607 5607 5608 5608 5609 5610 5611 5612 5612 5613 5614 5615 5615 5615 5616 5617 5618 5618 5619 5619 5620 5621 5621 5622 5623 5624 5625 5625 5625
5585 5587 5589 5590 5592 5594 5595 5597 5598 5599 5600 5601 5602 5603 5604 5604 5605 5605 5606 5606 5606 5607 5607 5607 5607 5606 5606 5606 5606 5605 5605 5605 5604 5604 5604 5604 5603 5603 5603 5603 5604 5604 5604 5604 5604 5604 5604 5604 5604 5604 5605 5605 5605 5605 5605 5605 5606 5606 5606 5607 5607 5607 5608 5609 5609 5610 5611 5611 5611 5612 5613 5613 5613 5614 5615 5616 5616 5617 5617 5618 5619 5619 5620 5621 5622 5622 5622
5584 5586 5588 5590 5592 5594 5595 5597 5598 5599 5600 5601 5602 5603 5604 5604 5605 5605 5606 5606 5606 5606 5606 5606 5606 5606 5606 5606 5606 5606 5605 5605 5605 5605 5604 5604 5604 5604 5604 5604 5604 5604 5604 5604 5604 5604 5605 5605 5605 5605 5605 5605 5605 5605 5605 5605 5605 5606 5606 5606 5606 5607 5607 5608 5608 5609 5609 5609 5609 5610 5610 5611 5611 5611 5612 5612 5613 5613 5614 5614 5615 5616 5617 5618 5618 5619 5619
5584 5586 5588 5590 5592 5593 5595 5597 5598 5599 5600 5601 5602 5603 5603 5604 5605 5605 5605 5605 5606 5606 5606 5606 5606 5606 5606 5606 5606 5606 5605 5605 5605 5605 5605 5605 5605 5604 5604 5604 5604 5605 5605 5605 5605 5605 5605 5605 5605 5605 5605 5605 5605 5605 5605 5605 5605 5605 5605 5606 5606 5606 5606 5607 5607 5607 5607 5607 5608 5608 5608 5608 5608 5609 5609 5609 5609 5610 5610 5611 5611 5612 5613 5613 5614 5615 5615
5584 5586 5588 5590 5591 5593 5595 5597 5598 5599 5600 5601 5602 5602 5603 5604 5604 5605 5605 5605 5605 5606 5606 5606 5606 5606 5606 5606 5606 5606 5605 5605 5605 5605 5605 5605 5605 5605 5605 5605 5605 5605 5605 5605 5605 5605 5605 5605 5605 5605 5605 5605 5605 5605 5605 5605 5605 5605 5605 5606 5606 5606 5606 5606 5606 5606 5606 5606 5606 5606 5606 5606 5606 5606 5606 5606 5606 5607 5607 5607 5607 5608 5608 5609 5609 5610 5610
5584 5586 5588 5590 5591 5593 5595 5597 5598 5599 5600 5601 5601 5602 5603 5603 5604 5605 5605 5605 5605 5605 5606 5606 5606 5606 5606 5606 5606 5606 5605 5605 5605 5605 5605 5605 5605 5606 5605 5605 5606 5606 5605 5605 5605 5605 5605 5605 5605 5604 5604 5604 5604 5604 5604 5604 5604 5605 5605 5605 5605 5605 5605 5605 5605 5605 5605 5605 5605 5605 5605 5605 5604 5604 5604 5604 5604 5604 5604 5604 5603 5604 5604 5604 5605 5605 5605
5584 5586 5588 5589 5591 5593 5595 5596 5597 5598 5600 5601 5601 5602 5602 5603 5603 5604 5605 5605 5605 5605 5605 5606 5606 5606 5606 5606 5606 5605 5606 5606 5605 5605 5605 5605 5606 5606 5606 5606 5606 5606 5606 5606 5605 5605 5605 5605 5604 5604 5604 5604 5603 5603 5603 5604 5604 5604 5604 5604 5604 5604 5604 5604 5604 5604 5604 5604 5603 5603 5603 5603 5602 5602 5602 5601 5601 5601 5601 5600 5600 5600 5600 5600 5600 5600 5601
5583 5586 5587 5589 5591 5593 5594 5596 5597 5598 5599 5600 5601 5602 5602 5602 5603 5604 5604 5604 5605 5605 5605 5605 5606 5606 5606 5606 5605 5605 5606 5606 5606 5605 5605 5606 5606 5606 5606 5606 5606 5606 5606 5606 5606 5605 5605 5604 5604 5604 5603 5603 5603 5603 5603 5603 5604 5604 5604 5604 5603 5603 5603 5603 5603 5603 5603 5603 5602 5602 5602 5601 5601 5600 5600 5599 5598 5598 5597 5596 5596 5596 5596 5596 5596 5595 5595
5583 5585 5587 5589 5591 5592 5594 5595 5596 5598 5599 5600 5600 5601 5602 5602 5602 5603 5604 5604 5604 5605 5605 5605 5605 5606 5606 5606 5605 5605 5605 5605 5606 5605 5605 5606 5606 5606 5606 5607 5607 5606 5606 5606 5606 5605 5605 5604 5604 5604 5603 5603 5603 5603 5603 5603 5603 5603 5603 5603 5603 5602 5602 5602 5602 5602 5602 5601 5601 5600 5600 5599 5598 5598 5597 5596 5596 5595 5594 5593 5592 5592 5591 5591 5590 5590 5589
5583 5585 5587 5589 5590 5592 5593 5594 5596 5597 5598 5599 5600 5601 5601 5602 5602 5602 5603 5603 5604 5604 5605 5605 5605 5605 5605 5606 5605 5605 5605 5605 5606 5605 5605 5605 5606 5606 5606 5606 5606 5606 5606 5606 5605 5605 5605 5604 5604 5603 5603 5602 5602 5602 5603 5603 5603 5603 5603 5603 5602 5602 5602 5602 5601 5601 5600 5600 5599 5598 5597 5596 5595 5594 5594 5593 5592 5591 5590 5589 5588 5587 5586 5586 5585 5584 5584
5582 5584 5586 5588 5590 5591 5592 5594 5595 5597 5598 5599 5600 5600 5601 5601 5602 5602 5602 5603 5603 5604 5604 5604 5604 5605 5605 5605 5605 5605 5605 5605 5605 5605 5605 5605 5606 5606 5606 5606 5606 5606 5606 5606 5605 5605 5604 5604 5603 5603 5603 5602 5602 5602 5602 5602 5602 5602 5602 5602 5601 5601 5601 5600 5600 5599 5598 5597 5597 5596 5594 5593 5592 5590 5589 5588 5587 5586 5584 5583 5582 5582 5581 5580 5579 5579 5578
5582 5584 5586 5588 5589 5591 5592 5593 5595 5596 5597 5598 5599 5600 5600 5601 5601 5602 5602 5602 5603 5603 5604 5604 5604 5605 5605 5605 5605 5605 5605 5605 5605 5605 5605 5605 5605 5605 5605 5606 5606 5606 5605 5605 5605 5604 5604 5603 5603 5602 5602 5602 5602 5602 5602 5601 5601 5601 5601 5601 5600 5600 5599 5598 5597 5597 5596 5595 5593 5592 5591 5589 5587 5586 5584 5582 5581 5580 5578 5577 5576 5575 5574 5573 5573 5572 5572
5582 5584 5585 5587 5589 5590 5591 5593 5594 5595 5597 5598 5599 5599 5600 5600 5601 5601 5601 5602 5602 5603 5603 5603 5603 5604 5604 5604 5604 5605 5605 5605 5605 5605 5605 5605 5605 5605 5605 5605 5605 5605 5605 5604 5604 5604 5603 5603 5602 5602 5602 5602 5601 5601 5601 5601 5600 5600 5600 5599 5599 5598 5597 5596 5595 5594 5592 5591 5589 5588 5586 5585 5583 5581 5579 5577 5575 5574 5572 5571 5570 5569 5568 5567 5566 5565 5565
5581 5583 5585 5587 5588 5590 5591 5592 5593 5595 5596 5597 5598 5599 5599 5600 5600 5601 5601 5601 5601 5602 5602 5603 5603 5603 5603 5604 5604 5604 5604 5604 5604 5604 5604 5604 5604 5605 5604 5604 5604 5604 5604 5604 5603 5603 5602 5602 5601 5601 5601 5601 5601 5600 5600 5599 5599 5599 5598 5598 5597 5596 5595 5593 5592 5590 5588 5587 5585 5583 5581 5579 5577 5576 5574 5572 5570 5568 5566 5565 5564 5563 5562 5561 5560 5560 5559
5581 5583 5585 5586 5588 5589 5590 5592 5593 5594 5595 5596 5597 5598 5599 5599 5600 5600 5600 5601 5601 5601 5601 5602 5602 5602 5602 5603 5603 5603 5603 5604 5604 5604 5604 5604 5604 5604 5604 5604 5603 5603 5603 5603 5602 5602 5601 5601 5600 5600 5600 5599 5599 5599 5599 5598 5598 5597 5596 5596 5595 5594 5592 5591 5589 5587 5586 5584 5581 5579 5577 5575 5573 5570 5568 5566 5564 5563 5561 5560 5559 5558 5557 5556 5556 5555 5555
5580 5582 5584 5586 5587 5588 5590 5591 5592 5594 5595 5596 5596 5597 5598 5599 5599 5599 5600 5600 5600 5601 5601 5601 5601 5602 5602 5602 5602 5603 5603 5603 5603 5603 5603 5603 5603 5603 5603 5603 5603 5602 5602 5601 5601 5601 5600 5599 5599 5599 5598 5598 5598 5597 5597 5596 5596 5595 5594 5593 5592 5591 5590 5588 5586 5585 5583 5580 5578 5576 5573 5571 5569 5566 5564 5562 5560 5558 5557 5556 5555 5554 5554 5553 5552 5551 5551
5580 5582 5583 5585 5586 5588 5589 5591 5592 5593 5594 5595 5596 5596 5597 5598 5598 5599 5599 5599 5600 5600 5600 5601 5601 5601 5601 5601 5602 5602 5602 5602 5602 5602 5602 5602 5602 5602 5602 5602 5602 5601 5601 5600 5600 5599 5599 5598 5598 5597 5597 5597 5596 5596 5595 5595 5594 5593 5592 5591 5590 5588 5587 5585 5583 5581 5579 5577 5574 5572 5569 5566 5564 5562 5560 5558 5557 5555 5554 5553 5552 5551 5550 5550 5549 5548 5548
5579 5581 5583 5584 5586 5587 5589 5590 5591 5592 5593 5594 5595 5596 5596 5597 5598 5598 5599 5599 5599 5599 5599 5600 5600 5600 5600 5600 5601 5601 5601 5601 5601 5601 5601 5601 5601 5601 5601 5601 5600 5600 5600 5599 5598 5598 5597 5597 5596 5596 5595 5595 5595 5594 5593 5593 5592 5590 5589 5588 5587 5586 5584 5582 5580 5578 5575 5573 5570 5567 5565 5562 5560 5558 5556 5555 5553 5552 5551 5550 5549 5549 5548 5547 5546 5546 5545
5578 5580 5582 5584 5585 5587 5588 5589 5590 5591 5592 5593 5594 5595 5595 5596 5597 5597 5598 5598 5598 5598 5599 5599 5599 5599 5599 5599 5599 5600 5600 5600 5600 5600 5600 5600 5600 5600 5600 5599 5599 5599 5598 5598 5597 5596 5595 5595 5594 5594 5593 5593 5593 5592 5591 5590 5589 5588 5587 5586 5585 5583 5582 5580 5577 5574 5571 5568 5566 5563 5561 5559 5556 5555 5553 5552 5550 5549 5548 5547 5547 5546 5545 5544 5544 5543 5543
5577 5579 5581 5583 5585 5586 5587 5589 5590 5591 5591 5592 5593 5594 5595 5595 5596 5596 5597 5597 5597 5597 5598 5598 5598 5598 5598 5598 5598 5598 5598 5598 5598 5598 5598 5598 5598 5598 5598 5598 5598 5597 5597 5596 5595 5594 5594 5593 5592 5592 5592 5591 5590 5590 5589 5587 5586 5585 5585 5583 5582 5580 5579 5577 5574 5571 5568 5565 5562 5559 5557 5555 5553 5552 5551 5549 5548 5547 5546 5545 5544 5544 5543 5542 5542 5541 5541
5576 5578 5580 5582 5584 5585 5587 5588 5589 5590 5590 5591 5592 5593 5594 5594 5595 5595 5596 5596 5596 5596 5596 5596 5597 5597 5597 5597 5597 5597 5597 5597 5597 5597 5597 5597 5597 5597 5597 5596 5596 5596 5595 5594 5593 5592 5592 5591 5591 5590 5590 5589 5588 5587 5586 5585 5584 5583 5582 5580 5579 5577 5575 5573 5571 5568 5565 5562 5559 5556 5554 5552 5551 5549 5548 5547 5546 5545 5543 5543 5542 5541 5541 5540 5539 5539 5538
5576 5578 5580 5581 5583 5585 5586 5587 5588 5589 5590 5590 5591 5592 5592 5593 5593 5594 5594 5595 5595 5595 5595 5595 5595 5595 5595 5595 5595 5595 5595 5595 5595 5595 5595 5595 5595 5595 5595 5595 5594 5594 5593 5592 5592 5591 5590 5589 5589 5588 5587 5586 5586 5585 5584 5583 5581 5580 5579 5578 5576 5574 5572 5569 5567 5564 5561 5558 5555 5553 5551 5549 5548 5547 5545 5544 5544 5543 5541 5540 5540 5539 5538 5538 5537 5537 5536
5575 5577 5579 5581 5582 5584 5585 5586 5587 5588 5588 5589 5590 5591 5591 5592 5592 5593 5593 5593 5593 5594 5594 5594 5594 5594 5594 5594 5594 5594 5594 5594 5594 5594 5594 5594 5594 5593 5593 5593 5593 5592 5591 5591 5590 5589 5588 5587 5586 5586 5585 5584 5583 5582 5581 5580 5579 5578 5576 5575 5573 5571 5569 5566 5563 5560 5557 5554 5552 5550 5548 5547 5546 5544 5543 5542 5541 5540 5540 5539 5537 5537 5536 5535 5535 5534 5534
5574 5576 5578 5580 5582 5583 5584 5585 5586 5587 5587 5588 5589 5589 5590 5590 5591 5591 5592 5592 5592 5592 5592 5592 5592 5592 5592 5592 5592 5592 5592 5592 5592 5592 5592 5592 5592 5592 5592 5591 5591 5590 5589 5589 5588 5587 5586 5585 5584 5584 5583 5582 5581 5580 5579 5578 5577 5576 5574 5572 5570 5568 5566 5563 5560 5557 5554 5551 5549 5547 5546 5544 5543 5542 5540 5539 5538 5538 5537 5536 5535 5534 5534 5533 5532 5532 5532
5573 5575 5577 5579 5580 5582 5583 5584 5585 5585 5586 5587 5588 5588 5589 5589 5589 5590 5590 5590 5591 5591 5591 5591 5591 5591 5591 5591 5591 5590 5590 5590 5590 5590 5590 5590 5590 5590 5590 5589 5589 5588 5587 5586 5586 5585 5584 5583 5582 5581 5581 5580 5579 5578 5577 5576 5575 5573 5572 5570 5568 5566 5563 5561 5558 5554 5551 5549 5547 5545 5544 5542 5541 5540 5538 5537 5536 5535 5534 5534 5533 5532 5532 5531 5531 5530 5530
5573 5575 5576 5578 5579 5581 5582 5583 5583 5584 5585 5586 5586 5587 5587 5588 5588 5588 5589 5589 5589 5589 5589 5589 5589 5589 5589 5589 5589 5589 5589 5589 5589 5588 5588 5588 5588 5588 5588 5587 5586 5586 5585 5584 5583 5583 5582 5581 5580 5579 5578 5577 5577 5576 5575 5573 5572 5571 5569 5567 5565 5563 5561 5558 5555 5552 5549 5547 5545 5543 5541 5540 5539 5537 5536 5535 5533 5532 5531 5531 5531 5530 5530 5529 5529 5529 5528
5572 5574 5575 5577 5578 5579 5580 5581 5582 5583 5583 5584 5585 5585 5586 5586 5587 5587 5587 5587 5587 5587 5588 5588 5588 5588 5587 5587 5587 5587 5587 5587 5587 5587 5586 5586 5586 5586 5586 5585 5584 5584 5583 5582 5581 5580 5580 5579 5578 5577 5576 5575 5574 5573 5572 5571 5569 5568 5566 5565 5563 5561 5558 5555 5553 5550 5547 5545 5543 5541 5540 5538 5537 5535 5534 5533 5531 5530 5529 5528 5528 5528 5528 5527 5527 5527 5527
5571 5573 5574 5576 5577 5578 5579 5580 5581 5581 5582 5583 5583 5584 5584 5585 5585 5585 5585 5585 5586 5586 5586 5586 5586 5586 5586 5586 5586 5586 5586 5586 5585 5585 5585 5585 5584 5584 5583 5583 5582 5582 5581 5580 5579 5578 5577 5576 5575 5574 5573 5572 5571 5570 5569 5568 5567 5565 5564 5562 5560 5558 5556 5553 5550 5548 5545 5543 5541 5539 5538 5536 5535 5533 5532 5530 5529 5528 5527 5526 5526 5525 5525 5525 5525 5525 5525